Wind_Gust
18 23 23 23 26 27 27 27 28 28 30 29 30 31 34 32 34 34 34 35 39 41 41 41 43 43 41 42 42 42 40 39 44 42 42 41 38 37 34 34 33 30 30 24 23 25 25 25 25 27 26 24 25 25 26 27 26 25 28 25 26 25 26 26 27 26 25 25 23 21 22 22 20 20 18 20 18 18 17 18 19 20 21 20 21 21
19 23 23 24 24 24 20 23 32 34 32 22 25 28 31 33 33 32 35 33 39 44 37 39 39 42 44 39 42 43 43 41 40 43 42 40 40 36 36 36 36 30 32 27 25 27 22 27 25 24 27 24 28 27 28 28 28 26 25 25 26 27 27 26 25 25 25 24 24 24 24 22 22 21 22 21 20 19 18 18 19 20 19 21 22 21
22 25 24 21 18 13 14 13 16 17 18 21 28 25 26 29 29 27 33 32 35 37 39 36 38 37 41 44 40 43 45 45 41 37 40 41 38 37 38 38 34 32 28 30 30 29 28 26 28 24 24 25 26 26 29 29 28 27 27 27 28 27 27 26 25 25 26 22 21 22 24 23 23 21 21 20 19 19 19 18 20 20 20 21 22 21
20 20 19 16 14 14 17 17 16 19 22 23 25 28 27 24 26 31 27 26 34 38 28 30 36 34 34 38 42 41 45 44 42 43 39 35 40 37 35 33 34 36 33 31 32 34 28 26 28 23 26 26 26 26 26 29 30 29 27 25 27 27 26 27 25 22 22 20 18 18 19 19 19 21 19 17 18 18 19 20 20 21 20 22 22 22
19 19 15 14 14 16 19 17 19 22 23 23 25 25 28 25 27 28 25 33 28 27 26 26 34 40 33 36 44 43 41 42 44 42 42 37 32 33 34 36 34 32 28 30 32 33 31 29 26 25 23 27 26 27 28 31 32 28 27 26 28 27 27 25 25 25 22 22 21 20 18 17 17 16 18 19 20 20 19 20 20 22 21 22 23 22
20 18 15 16 14 15 18 20 21 21 23 23 24 25 24 22 26 28 28 27 29 36 34 28 37 40 33 37 41 39 45 42 40 42 44 43 36 32 32 30 29 30 30 30 30 34 31 26 26 25 25 25 26 27 28 29 30 26 28 27 27 28 26 27 25 26 25 24 25 25 24 24 22 22 21 22 22 22 22 22 20 21 22 22 22 22
16 20 15 17 17 17 18 21 17 20 23 21 26 26 25 26 24 25 29 26 27 32 29 33 37 39 31 38 39 40 40 41 39 40 42 44 45 40 35 32 32 33 33 30 28 32 31 29 27 25 25 26 26 25 26 27 27 27 27 28 28 26 26 26 24 27 26 25 25 24 24 23 23 23 21 20 20 20 21 19 20 21 22 23 23 21
22 16 16 16 17 20 21 22 21 17 21 26 19 13 21 26 24 24 26 26 29 23 26 27 40 38 35 35 36 39 41 43 42 42 42 44 40 42 38 34 31 33 30 28 25 30 30 28 29 26 25 26 26 23 26 26 26 27 28 27 27 26 25 24 25 28 27 26 25 24 22 22 22 21 21 21 20 19 19 20 22 21 22 23 23 22
14 18 18 18 19 23 23 18 19 20 26 22 16 17 17 18 22 23 25 28 28 27 33 33 29 39 37 31 29 37 43 44 44 43 42 44 41 39 39 41 35 33 31 29 29 28 28 28 29 30 28 23 23 23 26 26 26 26 26 27 26 27 25 25 26 27 27 24 25 25 24 22 21 21 21 21 22 22 20 21 21 22 22 23 22 22
18 18 17 17 19 22 17 19 22 21 25 19 19 12 19 17 20 22 26 28 29 32 34 32 34 41 37 30 33 28 38 43 46 44 42 40 44 43 41 37 36 34 32 32 30 29 28 25 24 26 28 25 23 23 23 24 25 24 26 27 27 28 26 25 26 27 27 25 25 25 24 23 23 22 21 21 22 21 21 22 22 22 23 23 21 20
25 18 19 20 22 19 17 17 21 20 22 16 16 16 21 22 22 22 25 28 29 37 36 30 33 35 40 30 33 37 37 33 37 42 42 42 39 43 43 40 37 37 35 33 32 29 28 25 22 23 25 22 21 22 25 24 25 24 25 27 28 29 28 25 26 26 28 27 27 26 24 24 23 23 21 22 22 22 21 22 23 22 22 21 21 20
25 23 22 24 19 20 16 22 20 21 19 20 22 21 21 26 24 24 26 25 33 37 31 31 35 34 43 31 31 31 31 31 32 34 41 42 43 40 38 44 42 37 36 34 34 32 28 26 25 23 25 27 24 24 25 24 24 25 26 27 27 27 27 26 26 27 30 31 29 25 25 25 24 24 24 25 24 23 23 21 23 22 22 21 20 20
26 26 23 21 21 22 23 21 23 24 23 24 23 24 26 26 26 30 29 33 34 39 29 30 32 40 48 34 27 28 30 35 32 31 32 40 41 41 38 38 42 39 35 37 33 29 26 26 28 25 23 25 26 28 25 26 26 28 26 27 28 29 30 29 27 28 30 30 29 28 27 25 24 24 24 25 24 22 23 23 23 23 23 22 21 21
17 17 20 22 21 25 24 28 26 28 28 26 28 27 29 30 29 26 30 31 32 34 32 32 31 48 30 36 37 35 28 27 32 32 28 29 30 32 40 38 35 37 37 32 32 28 26 26 25 29 26 23 24 25 27 26 26 26 25 27 28 29 31 29 28 30 31 32 30 27 27 27 27 27 24 24 24 24 23 24 24 24 22 23 21 20
21 20 26 24 25 24 29 30 23 20 23 30 23 29 29 31 35 30 32 33 33 31 31 34 42 41 37 31 26 34 36 32 28 28 29 28 30 31 31 38 39 33 32 31 33 34 30 26 24 26 26 24 25 27 27 25 27 26 26 28 28 28 29 30 29 29 31 33 32 29 27 27 27 27 28 25 23 23 23 24 24 25 23 21 21 21
20 28 21 26 19 23 24 26 28 24 24 25 27 26 30 38 29 37 26 27 26 26 30 31 38 26 36 22 28 31 32 35 34 32 31 32 30 29 34 34 32 32 31 31 28 31 28 27 24 24 24 24 25 28 27 27 26 26 26 27 29 30 30 31 29 28 31 31 30 28 27 27 27 25 26 26 24 25 23 22 24 23 22 20 19 19
17 21 22 22 26 27 25 24 28 26 29 23 29 37 37 24 26 28 27 30 25 27 33 26 31 37 29 32 31 29 31 32 34 35 32 31 31 30 29 27 28 26 32 27 26 27 28 27 25 24 22 24 25 26 26 27 27 26 27 28 30 29 27 30 29 29 28 30 30 30 29 27 26 26 25 27 25 25 23 22 22 22 22 19 19 19
21 19 18 18 21 24 23 21 21 26 30 22 30 29 24 25 26 28 31 23 28 33 37 30 34 32 32 39 30 35 35 31 29 34 36 29 30 32 31 28 28 26 25 25 27 23 26 27 25 24 22 22 22 23 25 26 25 27 28 28 30 30 30 30 30 31 30 31 32 30 29 28 27 27 26 26 26 25 24 22 22 21 22 21 20 19
15 22 21 22 20 17 19 19 23 24 26 33 28 13 27 25 27 30 28 27 26 31 33 33 35 42 40 38 26 30 36 34 35 33 33 38 33 32 31 31 29 28 27 28 28 28 26 25 24 25 24 23 24 23 23 25 27 26 26 27 29 31 31 31 31 29 30 29 30 30 30 28 29 26 26 25 25 25 24 24 22 22 21 20 19 19
14 17 16 16 19 17 19 22 28 26 27 29 27 35 25 27 28 27 31 29 33 32 29 34 35 47 38 38 32 33 27 31 34 34 35 34 32 33 32 31 32 30 29 29 29 27 27 27 26 25 24 26 25 25 24 24 25 26 27 26 27 27 28 29 28 28 28 28 29 27 29 29 29 28 27 26 26 27 26 25 23 23 21 21 20 19
17 14 20 16 13 14 23 29 28 25 25 29 33 35 32 35 24 28 28 34 34 37 36 37 41 40 33 31 34 36 36 32 27 32 32 36 35 32 30 31 28 29 29 29 29 29 28 26 26 27 25 27 25 23 25 26 27 27 27 26 28 28 28 29 29 29 28 28 28 27 28 27 27 27 28 26 25 25 25 24 22 23 22 22 21 22
17 17 20 20 21 23 21 18 22 24 23 26 31 32 30 31 30 30 38 35 42 39 38 34 43 34 27 27 32 36 35 36 35 31 29 28 33 34 32 27 28 27 27 29 28 27 28 26 26 27 29 26 26 26 27 28 25 26 26 28 28 29 30 30 31 29 28 27 27 27 27 27 27 29 26 25 26 25 25 24 24 23 23 22 22 25
21 19 21 24 25 24 20 18 20 22 24 27 30 33 30 31 32 36 39 32 33 40 33 38 39 35 28 28 28 25 28 32 34 36 35 31 28 27 35 31 28 29 28 28 28 28 26 24 26 27 28 28 28 27 26 27 28 28 26 27 27 30 29 29 30 29 28 28 27 27 27 28 27 27 26 27 27 27 27 25 24 25 25 24 25 22
9 22 23 27 25 27 27 24 24 22 23 28 33 32 32 38 33 36 39 31 33 29 33 37 44 42 27 27 29 28 26 27 28 28 34 35 32 32 29 31 31 27 29 28 28 26 25 24 24 26 28 32 31 28 27 27 28 27 28 28 28 29 29 29 30 30 29 28 27 27 28 28 28 27 28 28 28 27 25 26 25 25 25 26 25 27
20 17 21 23 24 24 21 20 24 20 26 36 34 33 33 35 34 35 36 33 40 38 37 39 41 32 25 28 31 30 29 28 28 29 28 30 31 33 35 32 28 25 27 29 28 27 26 25 27 30 29 31 32 31 27 28 28 28 29 28 29 29 29 30 30 30 30 29 28 28 29 28 28 29 29 28 27 27 27 25 26 25 25 24 25 23
21 16 18 23 25 28 26 24 25 25 32 30 28 33 34 35 37 35 36 37 40 42 39 44 42 34 28 24 26 30 32 32 31 29 29 28 27 29 33 37 36 31 26 26 26 24 25 27 28 27 25 28 31 33 31 30 29 29 29 29 27 28 29 29 29 29 30 30 30 29 29 30 29 30 31 30 28 28 27 26 24 25 25 25 27 25
16 20 24 28 30 33 31 28 10 13 16 27 27 30 35 35 37 35 33 37 47 41 39 38 39 39 35 32 31 28 28 30 33 35 35 31 29 29 27 29 32 33 30 29 27 26 24 25 27 27 26 27 27 29 31 31 31 29 29 28 28 28 29 30 29 30 30 30 29 30 29 31 29 31 30 30 28 28 28 28 26 27 27 25 25 26
20 25 25 26 27 33 30 29 28 22 25 27 32 33 31 36 36 36 41 49 37 40 45 45 37 43 41 37 33 30 30 30 28 29 33 36 33 32 31 29 25 32 33 31 29 29 28 27 27 27 27 26 28 29 31 31 31 31 30 31 30 30 28 28 29 31 31 31 31 30 31 30 30 29 30 29 30 28 27 28 28 28 26 26 27 26
21 27 21 19 28 32 30 31 36 31 27 33 33 33 34 34 33 35 41 44 38 43 48 38 34 41 42 36 32 33 33 32 29 30 29 29 34 34 33 33 33 34 34 35 33 29 30 28 27 27 27 28 27 27 29 32 31 29 28 29 30 28 30 30 30 32 32 32 31 30 31 30 30 29 30 29 28 29 29 29 28 28 27 25 26 27
19 25 23 23 27 25 26 34 35 35 36 34 36 39 37 36 36 39 42 40 43 43 46 45 40 43 43 37 34 33 29 32 36 33 31 30 32 32 35 36 35 36 38 39 36 33 29 29 28 28 28 28 30 30 30 32 32 32 30 29 30 30 30 32 31 32 32 33 32 31 31 31 29 31 32 31 31 32 28 29 29 29 28 28 28 25
19 18 9 6 18 30 28 31 32 33 32 38 35 34 35 33 34 38 40 38 37 42 45 45 44 48 47 39 38 34 32 30 32 35 35 35 35 34 34 35 36 37 38 40 40 38 32 29 31 31 31 31 31 31 33 32 32 31 31 30 30 32 31 33 31 31 32 34 33 32 32 32 31 32 33 32 31 29 30 30 29 30 30 29 27 26
20 16 19 19 25 33 25 25 26 25 27 30 31 30 33 33 33 34 44 38 35 39 39 38 43 49 44 39 37 36 36 36 37 37 37 37 37 38 37 36 35 35 38 38 38 37 35 31 32 34 34 33 32 32 33 33 34 33 32 32 32 31 33 31 31 32 33 33 34 33 34 33 32 32 33 34 32 32 32 30 29 29 30 30 29 27
13 13 19 19 27 32 26 24 26 26 25 27 19 21 24 28 30 33 34 32 35 34 36 38 42 40 36 32 33 36 38 38 40 39 40 40 39 39 40 38 37 37 36 34 34 35 37 35 32 33 33 34 36 36 35 35 35 34 32 32 31 31 31 32 32 33 33 34 34 34 35 32 33 34 34 34 33 31 31 31 30 30 30 30 29 27
18 20 23 17 20 30 26 25 25 27 26 16 22 21 22 25 26 27 28 29 29 33 41 36 36 31 29 31 32 33 35 39 39 37 38 38 40 39 40 40 39 37 36 37 36 34 32 32 32 34 34 34 35 35 34 34 33 30 30 32 32 31 33 33 33 34 33 34 35 35 34 34 34 34 34 33 32 33 31 30 30 28 28 27 26 27
18 16 20 17 21 27 25 25 25 18 13 19 20 23 26 26 26 29 31 31 31 31 34 37 36 35 33 32 31 30 30 31 33 36 36 41 41 37 40 40 39 37 38 34 35 36 34 33 31 32 34 36 35 33 34 35 33 29 32 33 33 33 33 33 33 33 34 34 35 34 34 35 35 35 34 32 32 31 32 31 30 30 28 30 30 30
14 18 17 14 22 27 24 18 21 15 13 11 16 21 21 21 18 20 26 27 26 27 25 30 33 33 33 33 33 33 31 30 30 35 40 44 41 40 40 38 37 35 34 34 33 35 35 35 34 32 33 33 35 36 36 33 30 32 34 33 34 34 33 33 33 34 34 35 35 36 36 35 35 35 35 32 32 32 33 30 31 30 27 28 29 28
22 20 13 20 16 21 20 24 28 22 15 13 25 27 39 31 31 22 25 24 18 23 26 28 30 32 32 32 30 29 27 34 39 46 41 39 40 38 39 41 38 35 33 34 35 35 34 32 33 33 32 33 35 37 34 33 33 32 33 34 33 34 34 33 34 35 35 36 35 36 36 35 35 35 36 34 34 33 33 32 32 30 29 29 28 29
21 19 11 12 13 14 20 29 29 15 18 18 24 32 29 32 32 22 18 29 20 20 18 22 26 31 34 37 35 33 30 32 37 41 37 33 35 36 37 35 36 35 35 35 35 36 36 34 33 34 35 33 34 34 34 33 34 35 33 34 34 35 35 36 37 36 34 34 37 35 36 35 35 33 34 34 36 35 32 31 31 31 31 31 29 28
24 22 20 17 18 16 22 24 21 17 13 13 29 35 34 36 21 15 15 24 13 17 27 30 32 32 35 35 35 31 27 35 38 34 34 29 32 35 35 36 36 35 36 36 36 37 36 36 34 33 34 36 36 36 32 33 34 34 34 33 35 36 37 38 37 37 37 36 37 34 34 35 35 34 34 35 35 33 33 33 32 30 30 28 28 29
23 15 15 17 15 14 18 22 21 16 21 28 34 39 38 31 25 15 22 21 15 33 37 33 37 36 37 37 33 29 31 33 42 35 27 27 28 29 29 31 32 33 35 37 38 38 36 34 34 35 35 36 36 32 34 32 34 31 33 34 34 35 37 36 38 38 36 36 34 33 33 32 33 32 34 34 31 31 33 31 30 30 29 27 29 29
31 25 16 23 23 24 17 23 15 11 13 26 32 39 35 34 23 21 26 33 37 36 34 29 30 34 36 33 30 38 42 45 38 28 26 26 27 28 26 31 36 37 35 34 36 30 38 39 39 39 36 35 36 36 36 35 34 33 31 32 35 35 34 33 34 36 35 32 32 32 34 32 32 33 32 31 31 30 28 30 31 32 30 29 29 27
29 24 16 21 26 29 25 24 24 11 15 34 35 35 28 30 28 36 38 33 35 35 37 36 31 27 21 31 31 37 41 35 35 35 34 35 34 31 30 31 34 36 36 35 30 33 35 36 34 35 36 36 37 34 34 34 34 32 33 32 31 30 31 30 32 33 33 32 35 33 31 31 30 32 31 29 30 30 31 30 30 32 31 30 28 25
29 29 26 25 28 22 27 26 23 26 24 38 40 24 22 36 29 29 34 34 32 32 34 37 32 27 33 30 25 34 38 36 34 33 35 37 36 35 36 35 34 36 37 36 35 36 37 35 37 39 36 37 36 37 35 34 31 30 30 32 29 30 30 29 31 33 33 33 31 29 31 30 30 31 31 30 32 33 30 29 30 29 29 28 29 27
26 25 22 17 24 23 26 30 22 19 29 30 32 28 34 29 29 28 31 33 35 32 31 35 32 29 30 31 34 26 22 22 25 27 28 25 22 22 21 21 27 34 34 33 36 36 35 36 34 35 34 35 34 35 33 34 32 30 31 31 30 30 30 31 33 33 32 28 29 29 30 30 32 31 30 30 30 30 32 30 30 30 30 29 30 30
26 22 25 25 17 20 19 20 20 23 22 23 27 27 27 28 28 29 29 32 32 35 32 27 28 30 30 34 35 26 22 25 23 25 25 26 28 26 28 24 22 24 28 33 34 35 35 37 32 34 33 33 31 32 32 33 32 28 29 30 30 31 33 32 32 30 31 31 32 30 30 30 31 30 30 31 30 30 31 30 30 32 30 30 30 30
15 23 23 19 27 23 15 25 23 28 31 28 28 24 27 32 35 36 34 35 32 33 33 31 30 30 32 32 28 29 31 27 30 26 28 36 31 28 25 26 32 32 28 32 35 36 39 36 35 34 33 32 31 31 28 30 32 30 28 29 28 32 32 32 30 28 32 34 30 30 30 29 27 27 31 30 29 28 29 31 30 32 32 31 28 28
22 30 28 28 26 23 23 28 35 37 32 30 39 37 34 39 39 39 34 33 32 32 33 32 30 28 31 32 38 33 29 30 29 27 28 32 32 29 28 27 27 23 26 23 24 32 41 35 40 34 32 32 30 29 29 27 29 28 27 27 31 32 33 31 31 28 29 33 28 26 30 31 30 30 28 28 27 28 27 28 30 30 29 29 28 28
24 30 20 26 24 25 28 29 33 32 20 26 35 39 42 44 44 41 38 33 36 35 35 33 30 31 33 38 36 34 31 30 32 29 28 28 28 29 29 30 26 28 30 30 29 31 24 35 31 30 30 32 28 27 28 27 30 31 30 30 31 29 29 29 30 32 29 30 27 29 31 31 19 28 30 32 32 31 30 29 30 31 31 33 32 32
25 23 25 29 30 25 16 21 34 24 14 30 35 34 33 33 36 38 40 40 40 40 37 34 34 32 32 35 37 37 33 33 33 30 30 28 29 29 30 29 29 27 30 28 27 25 33 33 25 28 28 25 26 25 26 26 28 29 30 30 31 31 32 31 26 28 27 29 27 27 24 27 27 28 30 27 28 23 21 25 29 29 28 28 28 28
25 31 28 25 28 33 35 38 36 39 35 41 35 35 34 34 31 34 36 39 39 39 38 34 35 33 32 33 35 35 34 30 30 30 29 28 28 29 29 29 30 30 29 25 24 26 27 25 21 27 28 27 23 25 25 25 26 27 29 31 31 30 29 28 28 26 28 28 27 26 25 29 31 28 28 28 22 18 18 17 20 13 21 27 13 15
28 28 30 30 30 30 31 28 28 25 26 30 36 34 29 28 29 33 33 35 35 36 35 34 32 32 34 35 37 35 34 34 30 28 29 30 30 29 31 30 30 28 27 26 27 29 25 24 20 18 20 17 17 20 22 22 24 26 30 29 30 30 30 32 27 25 28 27 26 24 24 29 29 28 29 26 27 23 21 19 18 20 22 16 15 13
Wind_Speed
6 8 8 8 9 11 14 14 15 16 16 16 16 16 14 14 15 17 19 18 21 20 23 24 26 25 23 26 24 23 23 21 22 22 19 21 16 13 11 13 13 13 14 11 12 9 10 10 3 5 13 13 13 14 14 14 12 12 11 11 10 9 8 8 8 7 7 7 7 6 5 6 7 6 5 5 3 7 7 8 9 9 7 7 7 5
6 8 9 10 13 15 4 8 17 20 21 13 11 14 15 15 13 17 17 18 18 19 18 23 25 25 23 22 23 24 27 27 24 22 22 22 21 15 16 16 16 13 12 16 11 11 9 9 11 10 12 12 14 13 13 13 13 11 12 11 10 9 9 9 8 7 7 7 7 7 6 6 7 6 6 5 4 4 6 7 8 8 9 7 6 6
5 8 9 9 10 6 8 5 9 8 7 8 12 12 12 10 13 16 20 19 18 19 18 23 23 20 21 22 23 24 23 19 20 20 18 21 16 15 20 18 15 16 14 15 15 15 14 17 18 14 13 14 13 15 14 13 12 11 10 9 10 9 10 9 10 9 8 7 7 6 6 7 6 5 5 4 4 3 6 6 8 7 8 8 7 7
7 6 11 1 5 7 8 9 5 6 4 6 8 9 9 10 12 8 13 17 21 15 13 15 14 13 18 21 23 24 21 22 23 25 23 16 20 18 15 16 14 16 17 18 19 18 17 16 18 14 15 15 13 14 14 14 16 13 11 10 9 10 10 10 10 9 9 8 7 8 6 7 6 6 6 6 5 3 4 7 8 7 7 8 7 8
7 7 5 7 7 8 10 9 9 7 7 9 12 11 11 12 11 12 5 8 13 16 8 5 9 10 12 14 17 22 24 23 24 25 25 22 15 18 18 18 15 14 17 19 19 20 19 18 17 14 13 16 15 14 15 15 15 11 14 13 11 10 9 9 9 11 10 10 9 9 8 7 8 7 7 6 7 5 4 5 5 6 6 7 7 8
9 7 1 8 7 6 7 9 10 8 9 10 13 14 15 13 16 12 16 16 9 11 8 12 8 11 13 17 17 15 20 23 19 22 24 23 18 14 12 17 12 14 11 19 19 21 18 16 18 14 13 15 15 15 14 15 15 14 13 14 13 9 9 10 11 12 10 10 9 10 10 10 9 10 9 10 10 8 7 7 5 5 7 8 7 7
6 2 6 7 8 6 8 9 8 9 9 8 9 15 15 16 14 14 16 12 9 10 12 13 13 9 12 17 17 18 19 23 21 18 18 22 22 19 14 13 13 11 9 15 16 18 17 15 14 13 13 14 15 14 15 13 11 12 12 13 14 11 10 10 11 13 10 11 9 10 10 9 10 10 7 6 6 7 7 5 8 6 6 8 8 7
6 7 5 6 7 9 8 8 9 8 7 9 7 6 9 14 15 15 15 13 10 11 12 14 13 12 11 15 17 20 22 22 23 14 19 19 24 20 16 15 9 10 8 7 16 17 15 14 16 15 13 12 13 14 15 13 12 14 13 13 14 11 12 11 12 14 12 10 10 10 9 8 8 8 8 9 6 6 7 6 8 7 6 7 8 7
6 5 9 7 8 7 8 7 9 13 8 8 2 7 10 10 13 14 10 10 11 11 12 12 13 13 14 11 15 19 20 22 21 20 23 23 21 20 21 21 17 12 9 9 9 18 14 15 14 13 12 11 12 12 14 16 14 13 13 13 13 12 12 12 14 13 13 10 10 9 8 8 7 7 7 8 7 7 7 7 7 7 7 7 7 8
6 9 4 8 8 8 8 7 8 9 10 10 12 3 10 6 6 9 9 10 10 9 11 13 15 11 12 13 14 16 20 21 23 25 26 21 16 17 21 18 16 13 10 12 8 14 18 13 13 13 12 11 11 11 12 14 15 14 13 13 14 12 11 12 14 13 13 11 10 10 9 9 9 7 8 8 8 7 8 8 9 8 8 8 7 7
9 8 12 6 7 8 7 5 7 11 9 5 6 7 7 7 6 7 8 10 11 13 13 17 18 17 14 11 12 13 12 15 17 14 14 16 17 18 9 16 17 15 12 9 7 14 13 14 13 13 13 13 11 10 13 14 15 13 13 15 15 13 11 11 13 15 14 12 11 11 11 10 10 10 10 10 10 9 9 9 10 9 8 7 8 6
11 11 10 8 10 9 8 7 8 11 1 6 5 7 5 8 9 8 9 9 10 11 15 18 19 19 16 11 13 11 13 14 15 19 22 22 24 20 12 12 12 13 14 13 12 11 15 13 12 12 13 14 14 12 10 12 13 14 14 15 16 14 13 12 13 14 14 12 12 12 12 11 10 10 10 11 12 11 11 10 10 9 8 8 7 7
10 8 10 10 7 11 8 8 8 8 9 8 8 8 7 7 6 9 9 11 11 12 11 15 19 17 19 14 13 13 16 18 15 12 17 26 25 20 14 16 15 14 14 15 14 11 8 13 15 14 14 13 15 14 14 12 12 13 14 15 15 14 14 13 14 15 14 13 12 12 12 10 10 11 10 11 11 10 11 9 10 9 9 8 8 8
4 5 8 8 8 7 11 10 8 10 9 10 10 9 9 8 8 8 10 8 10 14 16 15 17 17 13 15 21 22 16 16 19 19 16 14 17 21 19 17 19 21 20 16 13 12 12 11 15 18 16 14 14 16 16 14 11 13 13 15 16 16 15 13 13 14 14 14 12 11 11 10 9 11 9 10 10 9 9 9 9 10 9 9 8 9
3 4 6 8 5 5 9 12 10 8 5 10 9 9 9 8 7 8 9 10 12 11 14 22 16 9 16 10 13 19 19 18 14 14 16 14 13 9 16 23 23 19 20 17 14 14 14 12 14 16 16 14 15 15 14 13 13 11 14 14 16 16 16 14 14 14 15 13 12 10 10 10 9 10 8 8 8 9 9 8 9 9 9 8 8 8
6 7 10 8 6 7 7 10 12 13 8 10 10 10 9 12 9 11 6 8 9 8 10 8 6 8 11 9 14 14 16 19 19 19 15 11 16 15 10 10 9 14 18 16 14 16 14 11 14 15 14 14 15 16 15 16 14 14 14 16 16 16 16 15 16 14 14 13 11 11 11 11 10 9 7 7 8 9 9 9 9 10 9 7 8 7
2 4 6 7 7 10 12 11 12 8 7 2 5 8 11 9 12 8 8 12 10 7 10 6 9 11 11 14 17 17 18 20 21 20 21 13 4 6 3 4 15 14 10 11 12 11 11 10 12 13 14 14 15 15 15 16 16 16 16 16 17 15 14 15 14 14 14 13 12 12 12 11 11 11 10 9 10 10 9 8 8 9 9 8 8 7
8 5 6 8 11 13 14 13 11 10 11 5 6 7 8 8 5 4 7 5 7 9 8 11 13 12 11 10 10 18 19 16 17 21 22 15 8 7 7 8 8 5 6 3 16 12 12 9 13 13 12 13 14 16 16 17 16 15 14 16 17 16 16 15 14 12 12 13 13 13 13 11 11 11 10 9 9 10 9 8 7 8 9 8 8 7
4 6 4 6 11 8 11 8 10 12 12 12 10 2 6 2 7 8 3 8 9 9 8 11 15 14 13 11 10 14 16 16 14 14 18 21 13 11 11 8 7 6 5 6 5 4 8 6 7 10 12 13 13 12 14 15 15 14 13 13 15 16 16 15 13 13 11 12 10 10 12 12 12 11 10 9 9 9 10 10 9 10 9 8 8 7
4 4 3 4 6 2 6 6 7 8 12 15 12 13 10 8 8 6 4 8 7 10 8 12 14 11 11 12 15 15 13 15 16 14 17 18 8 6 8 9 9 9 7 6 6 5 3 2 2 4 8 12 12 11 10 13 13 15 13 14 14 13 14 14 14 12 12 12 11 11 11 11 11 11 11 10 9 10 11 10 9 9 9 9 8 7
5 1 7 5 6 3 4 7 9 7 6 10 10 10 9 9 7 9 7 9 9 9 10 9 10 9 11 11 14 17 15 11 13 17 16 13 14 14 12 9 9 10 8 7 6 5 5 4 3 3 5 9 12 10 9 9 12 14 14 14 15 16 15 15 15 14 12 12 12 12 13 12 12 12 11 11 10 9 11 9 9 8 8 8 8 8
3 5 8 7 6 7 8 7 9 10 8 7 7 9 9 10 9 10 12 10 13 11 9 9 11 10 10 9 11 16 16 18 16 15 14 16 19 18 14 11 13 11 11 9 9 7 7 6 5 5 3 3 5 10 12 12 10 11 14 14 14 14 15 15 15 14 13 12 12 12 12 13 11 11 11 11 10 9 10 10 9 8 8 9 8 9
4 6 8 8 9 8 10 11 10 12 12 12 10 10 9 10 10 10 12 11 11 13 14 14 13 13 10 12 14 13 12 16 19 19 16 14 14 13 15 13 12 14 12 11 10 10 9 9 9 7 7 6 7 5 8 10 11 11 12 15 14 14 14 14 15 14 14 13 13 14 12 12 12 11 11 11 10 10 10 9 9 8 9 9 9 9
2 3 6 10 11 13 15 14 13 11 10 11 11 11 11 12 11 11 12 11 11 13 10 10 14 11 12 12 13 15 16 16 14 15 18 17 14 15 12 15 16 14 15 13 12 12 12 11 11 12 11 11 10 9 9 9 11 11 11 13 15 15 14 14 14 15 15 13 13 13 12 12 13 14 13 12 11 12 11 9 9 9 10 10 9 10
4 3 6 8 7 6 7 8 11 10 10 9 9 7 9 11 13 13 14 12 10 16 15 14 11 8 11 11 10 14 16 17 16 15 12 15 12 11 14 10 9 14 15 15 13 13 13 14 14 14 14 13 12 12 12 12 13 13 13 13 14 15 14 14 14 15 15 14 14 13 13 12 12 14 14 12 11 12 11 10 9 9 10 9 10 9
6 6 6 7 8 9 7 5 2 2 3 7 9 12 13 14 16 12 9 8 12 13 21 15 13 14 14 11 13 13 13 14 16 15 16 13 10 11 11 13 8 5 4 7 11 11 13 13 14 14 14 14 14 14 13 13 13 13 14 15 14 14 15 14 13 14 14 14 14 14 14 12 12 14 14 13 11 12 11 11 10 10 9 10 11 10
4 6 8 9 10 11 9 10 3 4 2 7 5 12 14 15 18 17 13 12 16 13 15 16 17 17 18 20 18 16 12 16 15 16 17 16 13 12 9 6 8 11 11 11 10 13 12 12 13 13 11 12 13 13 12 13 15 14 13 14 15 14 15 15 13 15 14 14 14 14 14 13 12 12 13 12 11 10 10 10 11 11 11 10 10 11
6 7 11 13 12 14 14 16 16 13 12 13 16 17 16 17 18 17 14 19 15 11 17 16 20 21 22 21 19 19 18 18 13 13 15 15 13 11 12 12 11 12 17 16 12 10 12 11 9 7 7 8 10 11 13 13 14 15 13 13 14 15 14 13 14 15 15 14 13 13 14 14 13 12 13 12 11 11 11 10 10 10 10 10 11 11
6 7 10 7 11 16 17 18 19 15 14 15 16 15 19 18 16 19 20 22 20 15 17 18 17 21 24 22 18 18 18 17 16 16 16 15 14 15 13 15 17 15 13 20 22 15 13 13 11 11 11 11 10 12 11 13 13 13 13 12 13 14 15 14 15 15 15 14 14 13 13 13 12 11 12 13 12 12 12 11 11 11 10 10 10 9
1 8 12 12 13 13 14 18 19 20 20 20 22 22 22 21 21 23 24 23 23 23 25 23 23 26 24 22 19 19 17 16 17 14 14 16 16 16 19 17 19 19 16 16 17 17 15 14 14 13 11 10 12 12 13 12 12 14 14 13 12 15 14 14 15 15 15 15 14 13 13 13 12 13 13 14 13 13 12 11 12 11 10 11 10 10
1 2 1 2 7 15 16 16 18 19 18 20 21 21 20 16 18 22 22 23 24 24 25 26 27 25 21 22 21 19 17 16 14 16 18 17 18 18 18 19 19 21 20 19 17 12 11 10 12 13 12 13 14 14 13 12 12 12 14 14 14 14 14 14 15 15 15 15 15 14 14 13 13 14 14 14 13 13 12 13 12 12 12 12 11 11
4 4 8 7 11 15 11 11 14 15 17 19 19 16 14 14 14 15 15 18 18 20 21 23 22 20 21 20 20 20 21 22 18 17 18 18 21 21 17 15 19 21 21 20 16 16 19 19 15 13 13 13 14 15 16 13 13 12 13 14 15 13 14 14 14 16 15 15 16 15 16 14 14 15 15 14 14 14 13 12 12 12 12 12 12 11
4 3 5 5 10 13 13 12 13 14 13 12 6 4 8 12 15 16 16 18 18 17 17 18 20 17 18 15 17 19 21 23 23 19 18 19 19 18 19 20 20 20 19 19 20 22 24 23 18 14 13 14 14 15 17 17 14 14 12 14 13 12 13 14 15 15 16 16 16 16 15 14 15 16 15 15 15 13 13 13 14 13 13 13 11 11
8 9 8 5 5 9 11 11 9 10 11 2 3 5 6 11 14 16 14 14 16 13 14 16 17 16 16 17 18 19 19 19 21 21 19 16 18 21 21 21 20 21 19 18 18 18 16 16 14 12 11 10 11 13 13 15 15 12 10 11 13 13 14 15 15 15 15 15 16 16 15 15 14 15 15 15 14 13 14 14 14 13 12 11 11 11
9 8 7 4 4 7 9 10 9 7 1 2 1 3 7 13 17 16 18 19 19 19 20 19 19 21 20 19 18 18 16 18 20 22 21 23 21 19 21 22 22 21 20 19 17 16 18 14 8 9 10 10 10 10 11 14 13 12 13 10 13 14 14 15 15 15 14 14 15 15 15 16 16 15 15 15 14 14 14 14 14 13 12 11 11 11
4 5 4 3 4 7 7 4 5 2 4 2 3 3 8 12 9 11 16 15 15 12 11 13 15 16 18 17 16 15 17 18 18 16 15 17 21 21 20 19 21 22 21 20 20 16 13 13 12 10 7 6 9 12 13 13 12 13 14 13 12 13 14 15 15 15 14 14 15 15 15 16 15 15 14 15 14 16 15 14 14 14 12 10 10 10
11 6 2 6 3 6 7 11 11 8 1 5 12 11 16 14 16 13 12 13 3 8 9 13 18 19 20 20 17 17 16 15 14 15 18 20 15 11 13 16 17 14 12 9 7 7 7 6 7 7 7 9 12 13 12 12 14 14 14 14 13 13 14 15 15 14 13 13 14 15 15 15 15 15 15 15 15 16 15 14 14 13 11 11 11 11
8 8 4 4 2 2 8 12 10 2 4 6 9 13 17 19 19 14 5 9 3 5 6 11 15 19 20 22 22 18 15 14 15 14 13 13 11 12 15 14 13 13 12 11 10 10 12 11 10 10 10 12 15 17 14 12 13 14 15 15 15 14 14 15 15 13 12 12 13 14 13 14 15 14 15 15 16 16 14 13 12 12 12 12 12 12
8 11 8 3 5 5 8 9 6 5 1 2 14 16 22 20 14 5 2 8 3 7 12 14 18 19 20 22 22 14 10 14 18 14 11 13 14 16 19 17 16 16 15 16 16 17 17 15 15 15 15 15 18 20 19 16 14 16 16 15 15 14 14 15 14 14 13 13 13 13 13 14 14 14 15 16 15 14 14 15 14 12 11 11 11 10
13 5 3 2 5 4 8 8 8 1 3 9 17 19 20 20 10 3 9 7 4 20 24 18 21 24 21 22 20 16 15 15 20 16 11 12 13 14 16 19 20 21 21 20 19 19 19 19 18 18 19 20 20 19 21 19 15 15 16 16 14 13 14 15 14 14 13 12 12 13 13 12 13 13 14 15 15 13 13 12 11 12 12 11 10 10
11 8 4 9 8 10 9 7 3 1 0 11 19 23 19 19 12 6 10 14 20 22 21 18 17 18 19 16 16 17 22 23 19 9 7 11 16 17 16 14 16 17 19 20 20 19 19 21 21 22 21 20 20 19 19 19 17 16 17 16 14 13 15 15 13 13 14 13 13 14 14 12 13 13 13 14 13 12 12 11 12 12 12 11 10 10
9 7 4 7 9 10 7 7 8 2 1 14 19 20 16 13 8 19 15 18 21 21 23 22 18 16 11 18 16 19 22 21 20 17 15 18 17 13 14 17 18 18 17 17 17 17 19 21 21 22 22 22 21 20 18 19 18 16 17 16 14 13 13 14 13 12 13 13 13 13 13 12 12 14 12 12 13 12 12 10 11 12 11 10 10 11
8 9 11 10 7 5 5 7 7 7 4 19 22 13 7 14 12 13 17 20 20 20 21 22 18 15 21 10 10 21 19 13 12 12 17 18 19 20 23 23 21 21 20 19 19 20 18 19 21 23 22 21 21 19 20 20 19 17 17 16 13 13 14 14 13 13 13 13 12 12 13 11 12 13 11 12 13 14 13 11 12 12 11 11 10 11
6 6 5 3 4 7 8 7 5 3 12 15 13 12 14 12 14 15 16 18 20 17 18 19 19 18 19 19 21 15 2 15 17 18 18 16 14 9 5 3 10 16 18 19 20 22 21 20 20 19 21 19 18 21 20 19 18 18 17 15 12 13 13 13 13 12 13 13 13 12 12 11 13 12 12 13 13 13 13 12 12 12 9 11 10 10
7 4 6 8 5 4 5 3 5 8 10 9 8 13 15 17 14 15 16 16 17 18 18 13 16 18 19 22 22 13 10 15 11 15 15 3 13 14 13 11 7 2 10 16 18 18 18 20 21 20 20 20 21 19 19 18 18 18 17 13 12 13 13 12 12 12 13 12 12 12 11 12 12 13 12 13 14 14 13 13 12 11 11 11 10 11
5 8 8 5 7 12 3 6 7 11 12 10 8 10 14 16 15 16 18 17 17 18 17 15 18 18 20 21 13 12 18 17 20 16 16 20 18 14 14 11 12 15 12 10 12 15 18 21 20 22 22 20 21 19 17 17 16 17 14 13 13 13 13 13 12 12 13 13 11 13 13 13 13 13 13 13 12 13 12 13 12 11 11 10 10 11
10 12 9 8 12 9 5 9 14 17 14 11 11 12 11 11 15 16 18 17 18 18 18 20 18 17 19 19 21 19 19 18 13 14 16 16 17 17 16 16 15 14 10 9 8 13 23 21 23 22 20 21 19 17 15 14 13 14 13 14 13 13 13 13 13 13 13 13 12 13 13 14 13 12 12 12 11 11 11 11 11 11 11 11 11 11
8 12 8 11 12 8 10 13 16 14 11 9 10 16 19 20 20 19 18 18 19 20 21 21 19 19 20 23 22 20 20 17 18 17 16 17 15 16 15 16 17 17 17 19 14 16 9 20 21 18 18 18 15 13 13 13 13 13 13 13 13 12 12 12 13 14 13 14 11 11 12 14 15 14 11 12 12 11 10 10 11 12 11 12 12 12
11 11 8 14 10 10 8 10 15 14 6 7 17 14 12 13 15 20 22 21 22 24 24 23 21 19 19 21 22 20 20 21 19 18 18 15 17 17 17 17 18 17 19 18 16 15 10 18 10 5 11 12 11 12 12 12 12 13 12 12 12 11 11 11 12 12 12 12 10 11 12 12 12 12 12 11 11 9 7 10 12 11 9 10 9 8
10 11 13 12 11 12 13 16 18 15 12 19 18 19 15 14 15 18 20 22 24 24 23 19 22 20 19 21 21 20 20 18 19 18 17 17 17 17 17 18 19 20 17 15 14 13 16 16 11 13 13 12 10 4 7 11 11 10 10 11 10 11 12 12 11 12 12 11 11 12 11 11 11 11 11 11 9 8 9 13 15 7 7 9 2 12
10 13 12 11 11 11 15 16 13 12 12 13 15 16 15 9 13 17 19 20 21 21 21 21 19 20 21 22 21 22 22 20 20 18 18 17 18 17 17 19 19 17 16 16 16 19 17 14 12 9 9 8 7 9 9 2 12 10 11 10 10 11 12 11 10 9 10 10 11 12 11 10 10 10 10 9 9 8 8 6 9 14 14 9 5 7
Wind_Direction
187 226 217 215 231 230 215 222 243 236 241 252 240 233 226 222 237 230 230 217 214 230 218 212 224 236 233 233 231 229 246 246 245 247 224 219 216 207 214 184 167 170 162 153 141 148 143 123 61 196 155 167 156 162 158 151 147 148 156 163 167 166 157 169 174 185 187 193 201 209 202 166 160 168 202 219 215 155 160 167 156 157 165 185 199 212
224 243 243 238 223 233 299 293 227 230 233 249 293 292 258 229 230 224 228 228 210 222 235 223 221 218 231 242 228 224 231 235 231 231 248 235 208 197 214 214 177 177 157 152 138 141 135 137 155 223 156 160 158 157 152 151 147 155 159 169 168 169 168 176 179 184 194 200 199 191 191 167 165 165 189 215 233 165 154 161 154 152 170 186 194 207
210 238 250 259 282 292 258 263 354 298 258 269 256 246 258 241 266 249 220 233 232 219 229 227 227 232 225 233 244 225 222 232 240 239 238 245 242 201 205 215 192 172 161 157 153 154 162 160 165 205 163 162 165 154 156 146 143 149 157 169 169 172 174 179 181 189 196 199 194 191 192 165 165 174 181 204 215 180 157 154 155 158 166 184 188 201
250 251 267 290 342 310 277 264 305 312 299 284 261 260 258 254 259 229 215 211 224 236 223 223 234 238 238 232 241 252 229 215 230 240 246 230 233 243 217 204 213 182 160 166 164 168 163 170 160 196 165 159 164 160 153 151 155 157 161 176 170 173 174 180 185 187 199 199 187 196 180 165 166 175 187 191 200 191 160 156 158 164 167 182 189 196
251 252 287 7 325 294 283 268 271 248 254 243 254 255 250 255 253 263 240 249 249 236 222 240 244 240 248 251 227 229 247 233 209 228 239 246 234 222 238 230 206 205 167 168 166 167 169 160 171 182 171 158 161 163 159 159 160 164 168 166 172 170 175 181 182 190 198 197 189 193 170 173 166 174 190 186 181 192 186 155 160 166 167 187 192 196
269 282 51 253 254 279 266 252 236 247 241 244 230 240 253 258 267 258 270 278 241 230 183 220 243 245 235 245 260 243 221 241 222 212 225 232 237 230 220 229 223 206 177 165 166 169 166 161 170 171 169 166 161 162 161 163 165 162 159 163 164 170 175 182 185 195 201 202 187 187 173 180 181 176 188 191 174 177 184 175 169 173 179 190 202 198
295 195 215 233 228 231 238 245 235 210 247 247 234 211 231 256 257 252 251 250 264 253 199 193 229 227 228 238 237 251 238 228 232 215 232 228 225 227 235 237 209 216 197 163 172 168 159 157 163 174 171 169 165 162 156 154 160 155 160 162 162 169 176 181 189 199 206 199 188 196 181 186 182 170 181 175 156 162 171 174 164 190 183 192 202 203
231 248 224 214 260 241 233 230 246 232 232 240 9 330 239 220 248 264 263 243 232 231 259 228 211 242 236 224 245 251 248 238 226 223 246 246 229 210 227 234 240 227 218 177 172 164 155 157 165 170 174 172 168 157 153 151 155 161 165 165 166 169 176 184 190 201 206 196 187 189 181 188 187 171 170 169 163 156 163 175 164 184 189 195 203 203
298 258 199 219 233 257 240 234 247 229 236 263 15 328 300 263 224 229 254 270 269 246 224 237 227 227 239 250 245 240 243 247 245 222 231 244 227 202 207 213 208 211 225 229 190 164 151 158 166 167 172 168 158 156 158 154 157 165 169 167 167 168 176 187 192 199 198 195 188 183 180 182 187 171 165 163 163 161 165 174 168 186 188 199 206 202
276 296 245 231 260 237 244 253 250 267 236 243 288 334 291 256 283 263 246 248 255 251 246 228 226 247 228 205 233 239 234 234 227 220 214 222 252 224 203 207 199 198 221 242 178 152 159 172 167 173 167 165 160 162 161 153 156 167 166 163 165 171 180 188 191 197 198 192 179 183 192 178 181 172 160 166 167 172 173 178 174 188 190 192 205 203
254 264 294 283 231 256 265 258 255 256 256 306 289 316 243 251 245 241 254 252 243 238 240 242 245 245 247 239 226 231 224 235 238 231 252 259 245 248 265 197 205 199 211 240 221 157 160 158 164 162 166 163 157 153 165 160 160 160 161 161 169 180 182 194 191 191 197 192 181 185 192 183 181 176 163 170 172 177 177 180 177 187 189 190 198 199
303 250 221 225 263 283 292 260 223 262 336 206 240 235 258 222 229 244 231 230 246 245 233 232 235 242 251 237 243 223 245 238 224 220 220 230 243 234 211 255 221 209 209 224 228 194 164 166 160 167 169 163 159 153 160 164 160 157 159 164 170 179 185 193 196 190 196 196 189 181 187 183 181 183 172 181 171 178 177 182 179 182 184 186 194 188
279 282 317 295 211 257 247 247 238 224 205 219 233 237 239 238 209 223 219 226 226 237 233 235 233 232 236 253 258 224 224 242 248 245 218 214 233 232 211 202 219 232 226 214 218 225 204 171 165 168 168 166 161 159 163 170 163 154 160 164 170 182 191 194 195 192 195 196 194 182 183 185 180 187 179 184 173 179 178 179 175 181 183 185 189 184
281 266 242 287 299 213 239 251 228 221 200 208 217 217 220 234 228 234 231 230 237 231 234 242 235 246 250 234 239 261 244 216 227 240 253 242 218 216 209 216 213 214 222 221 213 215 214 186 170 169 167 164 164 165 165 167 175 160 161 167 174 184 193 194 194 191 194 200 197 182 181 186 185 187 184 183 174 178 179 179 176 181 184 186 190 179
297 256 223 243 229 327 260 238 257 256 222 227 217 215 225 235 236 228 229 232 231 244 224 216 230 234 236 226 229 229 243 263 264 243 229 232 258 258 225 213 221 210 208 213 207 211 205 191 167 169 169 164 167 168 168 168 172 177 166 173 177 185 191 192 191 190 193 197 197 187 184 185 189 187 187 176 173 179 179 180 175 182 185 184 184 183
260 271 353 239 230 174 269 271 254 265 255 242 238 229 225 233 241 257 255 254 269 277 289 309 287 271 252 278 241 226 227 224 242 260 272 243 212 225 243 272 243 213 195 199 205 208 204 183 164 168 168 164 166 168 169 172 175 179 180 174 181 186 188 192 190 191 189 192 196 190 188 188 187 188 186 175 173 182 181 180 179 182 184 184 176 179
264 290 180 270 222 199 207 230 246 243 252 195 265 248 241 228 236 251 270 281 301 283 271 281 275 271 287 295 283 253 228 219 215 229 244 257 241 202 214 234 253 257 222 181 202 208 206 179 170 158 164 163 167 173 173 173 176 180 177 173 180 188 189 193 193 186 186 188 193 193 191 189 185 188 193 186 177 177 184 180 178 178 183 183 172 168
293 309 205 207 229 211 217 232 246 230 243 285 269 263 285 268 256 238 258 264 247 254 253 240 243 256 252 247 242 252 252 230 215 206 227 238 186 249 269 278 316 343 333 235 194 200 202 186 173 159 162 162 164 172 175 174 174 177 180 175 175 183 191 192 194 191 182 185 191 191 191 193 186 188 196 190 179 172 178 180 183 177 185 181 165 165
348 297 305 321 280 243 210 223 237 245 247 251 245 259 264 272 253 219 236 243 244 241 255 240 245 250 244 244 238 256 243 247 236 234 217 203 208 192 226 234 263 281 285 312 323 190 190 179 168 164 165 163 166 168 172 175 175 177 178 179 180 185 190 188 191 193 189 189 190 189 191 191 186 189 194 190 180 173 179 183 187 185 182 169 160 165
274 291 304 299 281 190 177 197 238 230 216 234 251 257 256 270 257 268 220 257 248 256 249 251 246 246 232 243 241 236 238 227 229 244 262 257 222 237 223 223 224 245 253 288 281 300 336 325 183 161 164 166 166 171 176 176 178 179 179 179 184 188 189 187 191 190 189 188 190 191 191 191 188 188 191 192 185 177 180 185 186 179 173 172 163 168
290 257 279 268 274 291 229 200 241 241 235 200 212 233 232 235 257 269 245 237 243 247 241 259 252 239 238 234 246 249 240 224 216 223 236 242 250 249 238 222 232 237 243 236 248 269 283 290 294 226 175 178 170 174 180 188 186 181 181 184 184 186 187 189 190 190 190 185 190 193 190 188 187 187 189 191 191 182 177 182 185 182 175 168 169 159
271 253 262 276 268 238 248 241 243 251 255 255 239 239 239 245 233 230 250 237 241 242 249 249 253 252 257 266 244 231 242 248 236 224 218 221 213 215 234 220 210 226 233 225 220 225 236 252 261 267 239 226 188 177 183 188 193 192 188 188 189 187 187 188 187 190 190 187 188 193 189 188 187 185 188 189 190 188 179 179 183 181 173 176 164 159
305 311 281 273 260 259 251 250 249 258 265 273 277 268 258 253 248 245 258 250 251 250 256 254 260 251 250 251 266 283 280 253 239 237 230 217 235 245 211 222 210 208 217 222 220 217 214 217 228 236 239 223 221 209 191 188 193 199 196 188 190 193 191 187 184 185 187 188 188 192 190 185 184 186 187 187 188 188 184 178 180 174 176 173 164 160
214 253 270 264 268 263 259 266 262 259 263 257 249 256 265 261 262 264 261 275 272 265 260 258 248 256 245 249 265 274 270 283 275 246 239 236 212 224 236 205 212 195 200 211 212 210 209 211 212 215 218 221 214 214 212 206 203 202 203 196 190 194 193 189 184 183 184 184 187 188 189 186 181 184 186 187 186 185 183 180 180 171 175 174 169 166
273 205 257 285 287 282 266 241 238 236 238 245 264 282 307 314 307 296 294 281 276 266 260 256 258 256 254 254 246 241 255 255 262 267 263 254 236 212 214 242 222 198 188 198 206 203 205 208 211 211 212 213 214 210 210 212 210 209 206 204 196 191 192 195 186 182 183 181 182 186 189 189 181 181 183 185 183 182 181 181 179 172 175 174 171 172
272 289 283 273 282 285 274 271 266 307 317 341 322 300 291 287 282 286 274 280 268 269 265 254 252 249 266 264 253 236 239 257 259 257 258 262 258 242 220 208 228 243 217 214 201 198 202 205 206 207 206 210 212 212 207 208 214 212 207 204 202 193 189 195 186 183 181 180 181 183 186 187 183 180 180 182 181 181 183 179 180 172 177 176 171 170
291 279 256 260 266 268 277 299 118 171 215 241 255 259 261 258 261 259 259 262 254 257 259 252 258 266 258 248 245 245 235 237 243 251 247 248 247 264 275 263 217 214 242 240 232 208 207 213 212 206 203 205 207 210 213 206 209 215 210 203 200 196 188 189 186 181 181 180 181 181 183 184 185 178 178 180 178 177 182 179 176 174 177 176 171 167
260 260 257 260 260 261 274 277 278 278 276 272 269 265 262 261 257 252 242 246 250 259 254 250 249 251 253 247 251 252 242 240 240 255 260 252 242 245 244 245 251 220 211 232 236 212 203 206 210 217 220 222 226 215 210 212 207 209 212 205 199 196 189 184 185 182 180 178 180 183 182 182 183 179 178 177 175 178 181 177 175 174 174 169 170 169
245 258 260 261 261 263 265 270 271 268 258 260 264 267 269 264 260 256 250 248 248 245 254 255 249 253 258 258 254 255 251 246 225 230 247 261 249 239 240 236 235 233 230 212 220 214 203 199 202 207 217 229 225 226 224 215 208 204 209 211 200 198 192 184 186 182 180 177 180 183 182 180 180 176 174 173 176 179 182 177 173 173 174 168 170 169
237 256 261 258 270 272 268 269 271 272 275 272 268 267 262 260 258 256 256 255 248 248 250 253 255 255 254 256 249 253 257 253 246 225 225 236 246 248 246 239 240 237 244 253 219 211 202 201 200 197 206 224 239 236 227 224 217 204 203 209 205 198 192 186 185 184 182 179 179 179 179 180 178 176 173 176 178 182 179 175 172 176 169 171 169 173
257 280 152 294 290 275 267 269 272 270 271 270 267 265 266 259 252 254 254 251 254 256 254 253 255 254 251 253 256 258 270 264 254 251 235 232 238 238 238 238 235 235 242 249 248 245 250 237 218 199 202 211 220 233 237 227 225 216 202 204 206 199 191 185 184 185 183 181 178 176 177 180 180 176 177 177 178 179 179 176 174 173 169 171 172 174
215 273 289 283 285 284 281 277 278 283 281 279 279 280 287 290 275 255 246 247 244 248 251 253 250 250 253 247 250 249 251 252 249 245 242 231 227 226 233 251 241 224 225 232 232 235 244 243 229 208 210 219 218 217 227 228 226 227 209 200 204 199 191 189 185 184 185 183 178 177 177 180 178 178 178 177 178 179 176 170 167 171 170 169 171 173
233 267 284 287 280 269 282 296 305 310 303 278 262 357 331 299 287 293 285 270 256 259 257 248 249 249 254 252 246 241 238 244 245 235 235 237 242 245 244 245 248 234 228 224 222 216 220 227 224 210 215 221 219 214 218 222 222 230 218 200 200 199 194 190 188 186 185 182 179 176 176 176 179 181 178 177 178 175 171 168 171 172 169 171 172 173
256 253 262 275 258 279 290 292 300 294 284 344 66 322 320 301 305 297 288 285 281 262 255 247 258 266 262 255 246 246 241 235 235 240 237 230 226 233 237 238 243 241 234 232 227 224 222 219 211 212 220 228 233 227 220 219 218 225 230 206 197 199 192 189 187 190 187 182 176 175 177 178 177 183 180 178 177 170 172 170 175 171 167 166 171 178
276 284 265 251 259 279 304 305 290 266 244 86 204 259 311 308 300 292 290 283 280 287 295 291 273 261 257 255 255 255 253 246 240 240 235 231 228 223 226 235 241 239 237 240 239 223 219 229 230 220 220 226 232 235 225 222 215 217 228 221 201 197 193 193 188 186 187 182 174 174 176 178 178 182 181 178 170 165 169 170 170 170 171 170 175 182
247 258 284 244 254 275 277 273 289 315 118 67 0 314 313 283 261 290 286 264 263 275 319 314 305 307 306 303 301 291 271 255 253 254 254 242 228 218 221 228 230 234 227 221 227 234 232 215 218 222 228 244 248 243 232 218 212 213 224 225 214 196 193 190 190 187 186 181 175 175 174 175 178 181 181 178 169 169 171 175 174 171 170 168 174 186
228 247 260 281 222 272 293 295 277 286 183 31 354 349 341 332 318 303 286 285 328 330 325 302 303 299 295 287 284 287 297 310 287 252 234 234 225 223 235 233 237 248 254 247 259 273 271 255 233 229 228 238 253 257 248 220 207 213 219 220 220 205 190 188 188 187 185 181 174 173 172 174 178 181 181 176 170 171 171 174 171 170 166 169 178 182
214 223 213 244 288 262 303 302 307 318 21 5 346 323 331 328 319 309 243 288 47 286 289 274 269 273 279 284 279 273 295 289 270 250 251 248 240 236 228 230 234 238 240 247 250 257 261 262 260 246 230 226 241 252 256 233 206 211 216 218 218 209 191 189 185 180 179 180 173 170 172 174 179 180 180 177 173 171 170 171 170 170 166 172 174 176
213 230 253 276 297 295 303 305 325 343 75 80 339 336 328 326 318 13 238 263 213 218 229 235 253 247 246 261 267 280 269 260 251 254 231 229 235 235 239 239 234 233 231 227 224 225 233 237 239 239 234 230 229 241 248 247 218 208 214 217 216 207 185 180 178 180 183 181 175 170 171 178 180 180 177 175 173 173 168 171 171 167 165 167 170 169
15 354 280 276 293 314 315 329 339 332 309 349 337 336 327 306 314 276 317 313 281 307 299 274 238 230 231 230 246 254 244 240 252 237 216 229 238 238 238 236 232 233 234 226 220 221 227 232 232 228 229 225 224 226 234 242 227 210 213 217 218 200 179 176 179 179 182 176 171 173 179 183 180 177 173 170 169 168 168 163 159 162 168 168 169 169
2 339 320 352 340 326 328 330 310 240 119 348 341 332 322 306 298 317 329 299 304 297 292 296 291 276 226 224 213 235 234 237 257 304 282 250 231 233 234 238 238 232 227 222 220 217 222 225 226 226 220 222 224 220 224 231 223 211 211 216 215 194 175 174 181 180 175 172 173 174 177 178 178 170 172 171 165 162 161 162 161 159 166 165 167 170
359 334 333 343 347 337 321 331 315 312 126 342 334 325 321 318 5 334 309 300 301 312 312 312 309 317 330 198 213 211 232 239 246 252 255 258 266 258 255 244 229 227 231 231 228 220 220 221 219 219 218 217 215 218 223 220 217 207 209 214 208 182 162 163 169 172 165 169 173 173 175 178 175 165 167 163 156 159 159 159 158 161 164 166 168 168
355 338 347 341 329 293 329 329 347 353 332 344 325 322 27 356 324 298 303 307 313 317 318 324 327 327 339 334 218 223 236 235 237 246 251 250 249 252 250 243 232 223 220 219 221 221 223 225 218 214 214 211 212 217 218 213 207 203 205 208 194 168 164 166 170 170 164 170 175 174 174 175 162 160 163 163 161 158 158 157 160 162 166 171 171 167
357 332 342 333 21 318 345 3 10 298 296 319 344 346 327 315 300 304 314 318 322 324 328 327 336 341 342 332 336 339 247 207 221 233 237 227 203 171 118 113 218 225 226 224 220 215 214 225 220 214 209 208 211 212 209 205 200 199 200 197 170 163 160 165 172 169 162 167 173 168 167 160 160 159 155 155 157 158 155 158 160 164 171 177 173 170
17 353 352 316 307 330 310 319 271 290 304 317 333 324 311 309 313 319 321 323 326 332 332 325 331 341 342 340 331 321 17 30 32 16 337 89 71 51 45 50 73 190 232 234 228 217 214 215 215 210 206 207 207 203 202 198 195 188 189 176 159 154 158 164 168 161 160 167 167 161 156 156 158 157 155 157 156 158 158 158 160 168 178 177 177 173
342 2 344 276 321 310 206 198 270 325 335 328 313 312 313 318 328 335 339 335 334 333 337 340 340 342 344 328 325 20 28 22 22 4 1 29 36 36 33 34 39 29 354 322 275 239 216 209 210 208 201 199 198 197 192 188 182 175 173 158 155 158 162 164 163 160 158 163 160 160 159 156 158 158 158 157 159 159 163 161 167 174 176 178 176 175
353 0 348 351 325 327 351 341 343 337 334 319 313 326 324 340 343 345 343 341 336 340 341 344 343 342 343 348 13 18 24 24 16 12 13 25 32 30 27 29 33 29 13 22 348 265 224 211 205 199 193 191 191 181 172 166 160 160 156 156 159 164 165 163 156 154 155 158 157 159 159 158 161 157 156 159 155 159 162 165 171 177 179 180 178 178
351 356 340 348 335 352 345 336 336 332 322 284 331 347 350 349 348 349 346 342 344 346 351 349 348 350 350 360 1 17 23 19 22 20 18 19 21 29 29 29 28 27 27 25 356 347 291 202 186 184 178 175 170 161 152 148 148 153 150 155 160 160 156 155 154 157 158 156 156 162 160 161 150 152 157 161 161 161 165 171 178 181 182 185 181 180
338 345 357 342 344 331 328 334 344 331 251 315 356 356 353 350 345 351 349 346 351 355 352 347 351 352 357 358 358 12 20 21 22 23 24 20 23 24 23 28 29 31 26 24 10 343 1 19 4 134 147 139 142 150 147 143 145 153 148 151 157 151 136 140 139 148 154 152 155 160 156 155 159 162 157 158 165 156 152 178 187 184 183 190 190 182
355 5 345 347 346 351 354 351 350 351 347 349 356 351 353 359 354 351 349 355 357 355 352 346 348 351 357 1 3 9 20 18 19 23 27 23 22 25 27 29 32 29 26 28 19 9 20 28 11 9 14 9 11 42 114 131 127 125 128 134 133 128 134 139 147 157 157 157 159 158 160 159 161 160 158 157 148 109 71 46 48 25 183 180 157 179
5 354 354 356 350 342 351 349 347 343 343 354 345 341 355 7 2 359 358 357 353 353 352 352 348 352 1 4 6 11 16 16 15 17 21 27 26 23 25 31 34 27 28 26 29 20 22 25 21 23 33 46 22 6 348 69 120 121 127 125 128 128 134 146 154 157 156 159 162 162 161 158 159 158 157 144 133 132 114 88 43 43 44 56 82 122